Date String (YYYY-MM-DD hh:mm:ss) UTC,Instrument flags,Ambient pressure (hPa),Sample flow (lpm),Bypass flow (lpm),Sample temperature (°C),Ambient temperature (°C),ASC tube jacket temperature (°C),LED temperature (°C),Box temperature (°C),Sample RH (%),Span deviation,Mass concentration (μg/m³),Mass concentration (μg/m³),Mass concentration (μg/m³)
DateTimeUTC,F1_M11,P_M11,Q1_M11,Q2_M11,T1_M11,T2_M11,T3_M11,T4_M11,T5_M11,U1_M11,ZSPAN_M11,X0_M11,X2_M11,X1_M11
2023-02-19 02:00:00,,0817.6,5.00,0.00,22.0,20.3,00.0,30.9,23.6,05.8,0000.0,0006.51,0002.39,0001.35
2023-02-19 02:01:00,,0817.6,5.01,0.00,21.9,20.3,00.0,30.9,23.6,06.0,0000.0,0006.63,0002.40,0001.36
2023-02-19 02:02:00,,0817.5,5.00,0.00,21.9,20.3,00.0,30.9,23.5,06.0,0000.0,0007.44,0002.40,0001.37
2023-02-19 02:03:00,,0817.5,5.02,0.00,21.9,20.2,00.0,30.9,23.6,05.5,0000.0,0007.39,0002.38,0001.38
2023-02-19 02:04:00,,0817.6,5.00,0.00,21.9,20.1,00.0,30.9,23.5,05.5,0000.0,0007.41,0002.40,0001.39
2023-02-19 02:05:00,,0817.6,5.01,0.00,21.8,20.1,00.0,30.9,23.5,05.4,0000.0,0007.45,0002.39,0001.40
2023-02-19 02:06:00,,0817.6,5.00,0.00,21.8,20.0,00.0,30.9,23.5,05.7,0000.0,0007.44,0002.37,0001.40
2023-02-19 02:07:00,,0817.5,5.01,0.00,21.8,20.1,00.0,30.8,23.5,05.6,0000.0,0006.30,0002.34,0001.41
2023-02-19 02:08:00,,0817.5,5.05,0.00,21.9,21.2,00.0,30.8,23.7,05.8,0000.0,0006.40,0002.35,0001.41
2023-02-19 02:09:00,,0817.5,5.02,0.00,22.0,22.5,00.0,30.7,24.1,06.1,0000.0,0006.54,0002.41,0001.41
2023-02-19 02:10:00,,0817.5,5.02,0.00,22.1,22.8,00.0,30.8,24.2,05.8,0000.0,0006.56,0002.41,0001.41
2023-02-19 02:11:00,,0817.5,4.99,0.00,22.2,22.3,00.0,30.9,24.2,05.9,0000.0,0006.66,0002.44,0001.43
2023-02-19 02:12:00,,0817.5,4.99,0.00,22.2,21.8,00.0,30.9,24.1,05.5,0000.0,0006.75,0002.45,0001.43
2023-02-19 02:13:00,,0817.5,5.00,0.00,22.2,21.4,00.0,30.9,24.0,05.7,0000.0,0005.32,0002.46,0001.44
2023-02-19 02:14:00,,0817.4,4.97,0.00,22.2,21.1,00.0,31.0,24.0,05.8,0000.0,0005.79,0002.47,0001.45
2023-02-19 02:15:00,,0817.5,5.01,0.00,22.2,21.0,00.0,31.0,24.0,05.9,0000.0,0006.23,0002.45,0001.47
2023-02-19 02:16:00,,0817.4,5.01,0.00,22.1,20.8,00.0,31.0,23.9,05.9,0000.0,0006.34,0002.50,0001.49
2023-02-19 02:17:00,,0817.4,5.02,0.00,22.2,20.8,00.0,31.0,23.9,05.8,0000.0,0006.55,0002.56,0001.51
2023-02-19 02:18:00,,0817.4,4.99,0.00,22.1,20.7,00.0,31.0,23.9,05.7,0000.0,0006.96,0002.57,0001.52
2023-02-19 02:19:00,,0817.4,4.99,0.00,22.1,20.6,00.0,31.0,23.9,05.8,0000.0,0007.12,0002.63,0001.53
2023-02-19 02:20:00,,0817.4,5.01,0.00,22.1,20.6,00.0,31.0,23.9,06.1,0000.0,0007.02,0002.59,0001.55
2023-02-19 02:21:00,,0817.4,5.00,0.00,22.1,20.5,00.0,31.0,23.9,05.9,0000.0,0006.91,0002.57,0001.57
2023-02-19 02:22:00,,0817.5,5.00,0.00,22.1,20.5,00.0,31.0,23.9,05.5,0000.0,0006.85,0002.56,0001.56
2023-02-19 02:23:00,,0817.4,4.99,0.00,22.1,20.4,00.0,31.0,23.8,05.7,0000.0,0007.00,0002.57,0001.56
2023-02-19 02:24:00,,0817.4,5.00,0.00,22.1,20.4,00.0,31.0,23.8,05.8,0000.0,0007.06,0002.59,0001.57
2023-02-19 02:25:00,,0817.5,5.00,0.00,22.1,20.4,00.0,31.0,23.8,05.5,0000.0,0006.80,0002.59,0001.58
2023-02-19 02:26:00,,0817.5,5.00,0.00,22.1,20.4,00.0,31.0,23.8,05.6,0000.0,0006.10,0002.64,0001.57
2023-02-19 02:27:00,,0817.3,5.01,0.00,22.0,20.4,00.0,31.0,23.7,05.9,0000.0,0006.20,0002.68,0001.56
2023-02-19 02:28:00,,0817.5,5.00,0.00,22.0,20.3,00.0,31.0,23.7,05.4,0000.0,0005.82,0002.60,0001.56
2023-02-19 02:29:00,,0817.5,4.99,0.00,22.0,20.3,00.0,31.0,23.7,05.5,0000.0,0005.23,0002.58,0001.55
2023-02-19 02:30:00,,0817.5,5.01,0.00,22.0,20.2,00.0,30.9,23.6,05.6,0000.0,0005.01,0002.54,0001.55
2023-02-19 02:31:00,,0817.5,5.01,0.00,22.0,20.2,00.0,30.9,23.7,05.8,0000.0,0005.14,0002.52,0001.54
2023-02-19 02:32:00,,0817.5,5.00,0.00,21.9,20.2,00.0,30.9,23.6,05.7,0000.0,0006.14,0002.53,0001.54
2023-02-19 02:33:00,,0817.4,4.98,0.00,21.9,20.1,00.0,30.9,23.6,05.8,0000.0,0006.33,0002.58,0001.54
2023-02-19 02:34:00,,0817.4,5.01,0.00,21.9,20.1,00.0,30.9,23.5,05.7,0000.0,0006.39,0002.60,0001.54
2023-02-19 02:35:00,,0817.5,5.00,0.00,21.9,20.1,00.0,30.9,23.4,05.7,0000.0,0006.63,0002.63,0001.55
2023-02-19 02:36:00,,0817.5,5.01,0.00,21.8,20.1,00.0,30.8,23.4,05.8,0000.0,0007.23,0002.72,0001.56
2023-02-19 02:37:00,,0817.4,5.01,0.00,21.9,20.8,00.0,30.8,23.7,06.0,0000.0,0007.21,0002.72,0001.57
2023-02-19 02:38:00,,0817.4,5.00,0.00,22.0,21.9,00.0,30.7,24.0,05.7,0000.0,0007.37,0002.69,0001.56
2023-02-19 02:39:00,,0817.4,5.02,0.00,22.1,22.7,00.0,30.8,24.2,06.0,0000.0,0008.03,0002.73,0001.55
2023-02-19 02:40:00,,0817.3,4.99,0.00,22.2,22.4,00.0,30.8,24.2,05.7,0000.0,0008.04,0002.77,0001.55
2023-02-19 02:41:00,,0817.3,4.99,0.00,22.2,22.0,00.0,30.9,24.1,05.9,0000.0,0008.07,0002.79,0001.54
2023-02-19 02:42:00,,0817.3,5.00,0.00,22.2,21.6,00.0,30.9,24.0,05.8,0000.0,0007.99,0002.78,0001.55
2023-02-19 02:43:00,,0817.2,5.01,0.00,22.2,21.3,00.0,31.0,24.0,05.8,0000.0,0007.62,0002.79,0001.53
2023-02-19 02:44:00,,0817.2,5.01,0.00,22.2,21.0,00.0,31.0,23.9,05.8,0000.0,0008.28,0002.84,0001.54
2023-02-19 02:45:00,,0817.3,4.99,0.00,22.1,20.8,00.0,31.0,23.8,05.7,0000.0,0008.86,0002.80,0001.54
2023-02-19 02:46:00,,0817.3,5.00,0.00,22.1,20.6,00.0,31.0,23.7,05.8,0000.0,0008.88,0002.78,0001.54
2023-02-19 02:47:00,,0817.3,5.00,0.00,22.0,20.4,00.0,31.0,23.6,05.8,0000.0,0008.58,0002.69,0001.53
2023-02-19 02:48:00,,0817.1,5.00,0.00,22.0,20.3,00.0,31.0,23.6,05.9,0000.0,0008.57,0002.68,0001.53
2023-02-19 02:49:00,,0817.2,5.01,0.00,21.9,20.2,00.0,31.0,23.5,06.1,0000.0,0008.51,0002.70,0001.53
2023-02-19 02:50:00,,0817.1,5.01,0.00,21.9,20.1,00.0,30.9,23.5,06.1,0000.0,0008.04,0002.72,0001.54
2023-02-19 02:51:00,,0817.1,4.99,0.00,21.9,20.1,00.0,30.9,23.5,06.2,0000.0,0008.01,0002.69,0001.54
2023-02-19 02:52:00,,0817.1,5.00,0.00,21.8,20.0,00.0,30.9,23.4,05.9,0000.0,0008.00,0002.65,0001.55
2023-02-19 02:53:00,,0817.1,5.01,0.00,21.8,20.0,00.0,30.9,23.4,06.0,0000.0,0007.99,0002.69,0001.54
2023-02-19 02:54:00,,0817.0,5.00,0.00,21.8,19.9,00.0,30.9,23.4,06.1,0000.0,0008.09,0002.71,0001.55
2023-02-19 02:55:00,,0817.1,5.01,0.00,21.7,19.9,00.0,30.8,23.3,06.3,0000.0,0007.75,0002.70,0001.54
2023-02-19 02:56:00,,0817.0,5.02,0.00,21.7,19.9,00.0,30.8,23.3,06.3,0000.0,0007.61,0002.84,0001.54
2023-02-19 02:57:00,,0817.0,4.98,0.00,21.7,19.8,00.0,30.8,23.3,06.2,0000.0,0008.11,0002.84,0001.53
2023-02-19 02:58:00,,0816.9,5.01,0.00,21.6,19.8,00.0,30.8,23.2,06.1,0000.0,0008.16,0002.78,0001.50
2023-02-19 02:59:00,,0816.8,5.00,0.00,21.6,19.7,00.0,30.7,23.2,06.1,0000.0,0008.24,0002.74,0001.48
